Location: Acequia del Cap
(41.7000°N, 0.6167°E)
Time: 16:53:45
(UTC+00:00)

NOSS 3-1 (A) - Pass Details

Date: 07 August 2020
Orbit: 745 x 1467 km, 63.4° (Epoch: 21 September)

Event Time Altitude Azimuth Distance (km) Brightness Sun altitude
Exits shadow 03:00:13 29° 189° (S) 1,450 4.0 -19.1°
Maximum altitude 03:02:57 61° 119° (ESE) 949 3.5 -18.7°
Drops below altitude 10° 03:08:56 10° 41° (NE) 2,669 7.1 -17.9°
Sets 03:11:44 0° 38° (NE) 3,729 8.2 -17.5°
